Regional Weather Roundup
Issued by NWS

Home | Current Version | Previous Version | Text Only | Print | Product List | Glossary Off
Versions: 1 2 3 4 5 6 7 8 9 10 11 12 13 14 15 16 17 18 19 20 21 22 23 24 25 26 27 28 29 30 31 32 33 34 35 36 37 38 39 40 41 42 43 44 45 46 47 48 49 50

000
ASUS45 KABQ 252101
RWRNM
NEW MEXICO REGIONAL WEATHER ROUNDUP
NATIONAL WEATHER SERVICE ALBUQUERQUE NM
300 PM MDT MON MAY 25 2015

NOTE: "FAIR" MEANS FEW OR NO CLOUDS BELOW 12,000 FEET AGL WITH NO
       SIGNIFICANT WEATHER OR OBSTRUCTIONS TO VISION.

      THIS PRODUCT IS RELEASED AS TWO VERSIONS.  ONE VERSION NEAR
      THE TOP OF THE HOUR CONTAINING PRELIMINARY DATA FROM ALBUQUERQUE
      AND OTHER STATIONS.  A FINAL VERSION WITH ADDITIONAL DATA IS
      ISSUED ABOUT 10 MINUTES AFTER THE HOUR.

NMZ501-503-504-510>518-252200-
NORTHWEST PLATEAU/NORTHCENTRAL MOUNTAINS

CITY           SKY/WX    TMP DP  RH WIND       PRES   REMARKS
FARMINGTON     SUNNY     63  42  46 CALM      29.98F
SANTA FE       LGT RAIN  60  46  59 NE5       30.00S
TAOS           PTSUNNY   57  36  44 SW20      30.03S

$$
NMZ402-403-502-505>509-252200-
WESTCENTRAL MOUNTAINS/SOUTHWEST MOUNTAINS

CITY           SKY/WX    TMP DP  RH WIND       PRES   REMARKS
GALLUP         LGT RAIN  50  44  80 W14       30.11R
GRANTS         CLOUDY    65  35  32 W17G35    30.04F
SILVER CITY      N/A     73  23  15 NW15G25   30.03F

$$
NMZ407-409-411-412-252200-
SOUTHERN DESERTS

CITY           SKY/WX    TMP DP  RH WIND       PRES   REMARKS
LORDSBURG      FAIR      79  27  14 W18G24    29.97F
DEMING         SUNNY     81  26  13 W20G25    29.96F
ALAMOGORDO     SUNNY     77  28  16 NW8G20    29.95F
T OR C         LGT RAIN  72  35  25 N14G25    29.94S

$$
NMZ519>523-252200-
CENTRAL VALLEYS/CENTRAL HIGHLANDS

CITY           SKY/WX    TMP DP  RH WIND       PRES   REMARKS
ALBUQUERQUE    PTSUNNY   63  44  50 E5        29.98R
DOUBLE EAGLE   TSTM      57  43  58 SW10G35   30.00S
CLINES CORNERS MOSUNNY   66  30  26 W22G28    30.00F
BELEN          CLOUDY    68  34  28 SW8G30    29.96R
SOCORRO        NOT AVBL

$$
NMZ524>526-539-540-252200-
SOUTHCENTRAL MOUNTAINS

CITY           SKY/WX    TMP DP  RH WIND       PRES   REMARKS
RUIDOSO        NOT AVBL

$$
NMZ527>531-252200-
NORTHEAST HIGHLANDS/NORTHEAST PLAINS

CITY           SKY/WX    TMP DP  RH WIND       PRES   REMARKS
LAS VEGAS      PTSUNNY   64  33  31 NW7       29.97S
RATON          LGT RAIN  56  44  64 NE16      29.97S
CLAYTON        PTSUNNY   69  45  41 SE16      29.90F

$$
NMZ532>537-252200-
EASTCENTRAL PLAINS

CITY           SKY/WX    TMP DP  RH WIND       PRES   REMARKS
TUCUMCARI      MOSUNNY   80  41  24 SW21      29.81F
CANNON AFB     NOT AVBL
CLOVIS AIRPORT MOSUNNY   75  43  31 SW18G24     N/A

$$
NMZ028-029-538-252200-
SOUTHEAST PLAINS

CITY           SKY/WX    TMP DP  RH WIND       PRES   REMARKS
ROSWELL        MOSUNNY   82  35  18 SE7G17    29.87F
ARTESIA        PTSUNNY   81  32  17 E12       29.86F
CARLSBAD       SUNNY     87  33  14 W14G22    29.85F
HOBBS          MOSUNNY   77  41  27 S7        29.92F


$$


USA.gov is the U.S. government's official web portal to all federal, state and local government web resources and services.